This demonstration page uses our WeatherBlox Daily Observations layout. Learn more.

Left ArrowRight Arrow

39.01783, -85.05884

Hourly Observations for September 23, 2021

Temp ( °F °C ) Dew Point ( °F °C ) Humidity (%) Winds ( mph kmh ) Pressure ( in mb ) Visibility ( mi km ) Precip ( " mm )
12:52 am 00:52 Cloudy 53 11.7 49 9.4 86 86 W 12 19 29.92 1013 10 16 0.01 0.25
1:23 am 01:23 Cloudy 53 11.7 49 9.4 86 86 W 13 20 29.93 1014 10 16 0.00 0.00
1:48 am 01:48 Cloudy 54 12 50 10 88 88 W 13 20 29.93 1014 10 16 0.00 0.00
1:52 am 01:52 Cloudy 53 11.7 50 10 89 89 W 13 20 29.92 1013 10 16 0.00 0.00
2:52 am 02:52 Cloudy 53 11.7 49 9.4 86 86 W 9 15 29.91 1013 10 16 0.00 0.00
3:33 am 03:33 Cloudy with Light Rain 53 11.7 49 9.4 86 86 W 9 15 29.91 1013 7 11 0.00 0.00
3:52 am 03:52 Cloudy with Rain 53 11.7 50 10 89 89 W 14 22 29.90 1013 5 8 0.00 0.00
4:48 am 04:48 Cloudy 54 12 50 10 88 88 WSW 7 11 29.91 1013 10 16 0.02 0.51
4:52 am 04:52 Cloudy 53 11.7 50 10 89 89 WSW 8 13 29.90 1013 10 16 0.02 0.51
5:40 am 05:40 Cloudy 53 11.7 49 9.4 86 86 WNW 10 17 29.92 1013 10 16 0.00 0.00
5:52 am 05:52 Cloudy with Light Rain 53 11.7 50 10 89 89 NW 9 15 29.91 1013 7 11 0.01 0.25
6:03 am 06:03 Cloudy 53 11.7 49 9.4 86 86 WNW 8 13 29.92 1013 10 16 0.00 0.00
6:19 am 06:19 Cloudy 53 11.7 50 10 89 89 W 6 9 29.93 1014 10 16 0.00 0.00
6:52 am 06:52 Mostly Cloudy 52 11.1 49 9.4 89 89 W 8 13 29.91 1013 10 16 0.00 0.00
7:52 am 07:52 Mostly Cloudy 52 11.1 48 8.9 86 86 W 8 13 29.92 1013 10 16 0.00 0.00
8:52 am 08:52 Mostly Cloudy 53 11.7 49 9.4 86 86 W 12 19 29.93 1014 10 16 0.00 0.00
9:52 am 09:52 Mostly Sunny 56 13.3 49 9.4 77 77 W 15 24 29.93 1014 10 16 0.00 0.00
10:52 am 10:52 Partly Cloudy 60 15.6 49 9.4 67 67 W 13 20 29.94 1014 10 16 0.00 0.00
11:52 am 11:52 Mostly Cloudy 60 15.6 49 9.4 67 67 W 12 19 29.95 1014 10 16 0.00 0.00
12:52 pm 12:52 Mostly Cloudy 63 17.2 50 10 63 63 WSW 14 22 29.95 1014 10 16 0.00 0.00
1:52 pm 13:52 Mostly Cloudy 66 18.9 49 9.4 54 54 W 17 28 29.94 1014 10 16 0.00 0.00
2:52 pm 14:52 Mostly Cloudy 62 16.7 47 8.3 58 58 NNW 10 17 29.94 1014 10 16 0.00 0.00
3:52 pm 15:52 Mostly Cloudy 66 18.9 43 6.1 43 43 W 16 26 29.93 1014 10 16 0.00 0.00
4:52 pm 16:52 Mostly Cloudy 63 17.2 43 6.1 48 48 W 12 19 29.94 1014 10 16 0.00 0.00
5:52 pm 17:52 Mostly Cloudy 66 18.9 41 5 40 40 W 14 22 29.95 1014 10 16 0.00 0.00
6:52 pm 18:52 Mostly Sunny 63 17.2 41 5 45 45 W 12 19 29.96 1015 10 16 0.00 0.00
7:52 pm 19:52 Mostly Clear 58 14.4 40 4.4 51 51 WSW 5 7 29.98 1015 10 16 0.00 0.00
8:52 pm 20:52 Clear 56 13.3 41 5 57 57 SW 6 9 30.00 1016 10 16 0.00 0.00
9:52 pm 21:52 Clear 54 12.2 41 5 62 62 SSW 7 11 30.02 1017 10 16 0.00 0.00
10:52 pm 22:52 Clear 53 11.7 41 5 64 64 SW 5 7 30.02 1017 10 16 0.00 0.00
11:52 pm 23:52 Clear 52 11.1 42 5.6 69 69 SSW 3 6 30.03 1017 10 16 0.00 0.00

Powered by AerisWeather